Location: De Greiden
(52.9496°N, 5.9137°E)
Time: 02:10:19
(UTC+00:00)

Cosmos 1553 Rocket - Pass Details

Date: 24 January 2021
Orbit: 941 x 1008 km, 82.9° (Epoch: 26 February)

Event Time Altitude Azimuth Distance (km) Brightness Sun altitude
Rises 17:36:11 0° 351° (N) 3,754 7.0 -13.3°
Reaches altitude 10° 17:38:58 10° 0° (N) 2,798 6.3 -13.7°
Maximum altitude 17:44:54 38° 67° (ENE) 1,504 4.5 -14.5°
Drops below altitude 10° 17:50:45 10° 134° (SE) 2,760 6.0 -15.4°
Sets 17:53:28 0° 143° (SE) 3,696 6.8 -15.8°
